Location: Gibsondale
(40.9931°N, 80.2478°W)
Time: 17:56:38
(UTC+00:00)

Timation 2 Rocket - Pass Details

Date: 29 October 2020
Orbit: 904 x 1077 km, 70.0° (Epoch: 28 November)

Event Time Altitude Azimuth Distance (km) Brightness Sun altitude
Rises 22:46:46 0° 335° (NNW) 3,759 7.2 -5.7°
Reaches altitude 10° 22:49:20 10° 336° (NNW) 2,828 6.6 -6.2°
Maximum altitude 22:56:01 82° 65° (ENE) 1,070 4.2 -7.4°
Drops below altitude 10° 23:02:52 10° 153° (SSE) 2,897 6.3 -8.7°
Sets 23:05:31 0° 154° (SSE) 3,855 7.0 -9.2°
